Time,TemperatureF,DewpointF,PressureIn,WindDirection,WindDirectionDegrees,WindSpeedMPH,WindSpeedGustMPH,Humidity,HourlyPrecipIn,Conditions,Clouds,dailyrainin,SoftwareType,DateUTC
2013-03-02 00:01:00,55.8,40.8,30.05,NW,304,4.0,8.0,57,0.00,,,0.00,Wunderground v.1.15,2013-03-02 05:01:00,
2013-03-02 00:03:00,55.8,41.2,30.05,NW,305,4.0,8.0,58,0.00,,,0.00,Wunderground v.1.15,2013-03-02 05:03:00,
2013-03-02 00:06:00,55.8,41.2,30.05,WNW,302,3.0,8.0,58,0.00,,,0.00,Wunderground v.1.15,2013-03-02 05:06:00,
2013-03-02 00:12:00,55.8,41.2,30.06,WNW,302,3.0,3.0,58,0.00,,,0.00,Wunderground v.1.15,2013-03-02 05:12:00,
2013-03-02 00:17:00,55.8,40.3,30.06,NNW,329,3.0,9.0,56,0.00,,,0.00,Wunderground v.1.15,2013-03-02 05:17:00,
2013-03-02 00:23:00,55.8,39.9,30.06,NNW,331,3.0,8.0,55,0.00,,,0.00,Wunderground v.1.15,2013-03-02 05:23:00,
2013-03-02 00:29:00,55.8,40.3,30.06,NW,308,3.0,3.0,56,0.00,,,0.00,Wunderground v.1.15,2013-03-02 05:29:00,
2013-03-02 00:34:00,55.8,40.3,30.05,NW,310,3.0,3.0,56,0.00,,,0.00,Wunderground v.1.15,2013-03-02 05:34:00,
2013-03-02 00:40:00,55.7,40.2,30.05,North,349,3.0,4.0,56,0.00,,,0.00,Wunderground v.1.15,2013-03-02 05:40:00,
2013-03-02 00:46:00,55.7,39.8,30.05,NW,317,4.0,6.0,55,0.00,,,0.00,Wunderground v.1.15,2013-03-02 05:46:00,
2013-03-02 00:51:00,55.7,40.2,30.05,NW,309,3.0,7.0,56,0.00,,,0.00,Wunderground v.1.15,2013-03-02 05:51:00,
2013-03-02 00:57:00,55.7,40.7,30.05,NW,317,3.0,7.0,57,0.00,,,0.00,Wunderground v.1.15,2013-03-02 05:57:00,
2013-03-02 01:02:00,55.6,41.0,30.05,NW,309,2.0,12.0,58,0.00,,,0.00,Wunderground v.1.15,2013-03-02 06:02:00,
2013-03-02 01:08:00,55.5,40.5,30.05,NW,317,1.0,1.0,57,0.00,,,0.00,Wunderground v.1.15,2013-03-02 06:08:00,
2013-03-02 01:14:00,55.5,40.5,30.05,NW,319,2.0,5.0,57,0.00,,,0.00,Wunderground v.1.15,2013-03-02 06:14:00,
2013-03-02 01:19:00,55.5,41.0,30.05,NW,321,3.0,4.0,58,0.00,,,0.00,Wunderground v.1.15,2013-03-02 06:19:00,
2013-03-02 01:25:00,55.4,40.9,30.05,NNE,13,3.0,4.0,58,0.00,,,0.00,Wunderground v.1.15,2013-03-02 06:25:00,
2013-03-02 01:31:00,55.3,41.2,30.05,NNW,335,3.0,3.0,59,0.00,,,0.00,Wunderground v.1.15,2013-03-02 06:31:00,
2013-03-02 01:36:00,55.3,41.6,30.05,NW,320,2.0,4.0,60,0.00,,,0.00,Wunderground v.1.15,2013-03-02 06:36:00,
2013-03-02 01:42:00,55.2,41.1,30.05,NW,319,2.0,3.0,59,0.00,,,0.00,Wunderground v.1.15,2013-03-02 06:42:00,
2013-03-02 01:47:00,55.1,41.5,30.04,NW,318,2.0,4.0,60,0.00,,,0.00,Wunderground v.1.15,2013-03-02 06:47:00,
2013-03-02 01:53:00,55.0,41.4,30.04,NW,304,2.0,2.0,60,0.00,,,0.00,Wunderground v.1.15,2013-03-02 06:53:00,
2013-03-02 01:59:00,55.0,41.8,30.05,NW,325,3.0,4.0,61,0.00,,,0.00,Wunderground v.1.15,2013-03-02 06:59:00,
2013-03-02 02:04:00,55.0,41.4,30.05,WNW,292,3.0,13.0,60,0.00,,,0.00,Wunderground v.1.15,2013-03-02 07:04:00,
2013-03-02 02:10:00,54.9,41.7,30.05,NW,314,2.0,3.0,61,0.00,,,0.00,Wunderground v.1.15,2013-03-02 07:10:00,
2013-03-02 02:16:00,54.9,41.7,30.05,NNW,329,2.0,7.0,61,0.00,,,0.00,Wunderground v.1.15,2013-03-02 07:16:00,
2013-03-02 02:21:00,54.9,41.3,30.05,NNE,17,3.0,6.0,60,0.00,,,0.00,Wunderground v.1.15,2013-03-02 07:21:00,
2013-03-02 02:27:00,54.9,41.3,30.04,NNW,341,2.0,6.0,60,0.00,,,0.00,Wunderground v.1.15,2013-03-02 07:27:00,
2013-03-02 02:33:00,54.9,41.3,30.04,WNW,298,1.0,6.0,60,0.00,,,0.00,Wunderground v.1.15,2013-03-02 07:33:00,
2013-03-02 02:39:00,54.8,41.6,30.04,NNW,333,1.0,1.0,61,0.00,,,0.00,Wunderground v.1.15,2013-03-02 07:39:00,
2013-03-02 02:45:00,54.8,41.6,30.04,NW,309,1.0,5.0,61,0.00,,,0.00,Wunderground v.1.15,2013-03-02 07:45:00,
2013-03-02 02:51:00,54.8,41.6,30.04,NW,320,1.0,3.0,61,0.00,,,0.00,Wunderground v.1.15,2013-03-02 07:51:00,
2013-03-02 02:57:00,54.8,41.6,30.04,NW,326,2.0,3.0,61,0.00,,,0.00,Wunderground v.1.15,2013-03-02 07:57:00,
2013-03-02 03:03:00,54.8,41.6,30.05,North,360,1.0,9.0,61,0.00,,,0.00,Wunderground v.1.15,2013-03-02 08:03:00,
2013-03-02 03:09:00,54.8,41.6,30.04,WNW,302,1.0,3.0,61,0.00,,,0.00,Wunderground v.1.15,2013-03-02 08:09:00,
2013-03-02 03:14:00,54.7,41.5,30.04,WNW,300,2.0,5.0,61,0.00,,,0.00,Wunderground v.1.15,2013-03-02 08:14:00,
2013-03-02 03:20:00,54.7,41.5,30.04,North,355,1.0,2.0,61,0.00,,,0.00,Wunderground v.1.15,2013-03-02 08:20:00,
2013-03-02 03:26:00,54.7,41.5,30.04,WNW,300,2.0,4.0,61,0.00,,,0.00,Wunderground v.1.15,2013-03-02 08:26:00,
2013-03-02 03:32:00,54.7,41.5,30.04,North,360,2.0,4.0,61,0.00,,,0.00,Wunderground v.1.15,2013-03-02 08:32:00,
2013-03-02 03:37:00,54.7,41.5,30.04,NW,319,2.0,4.0,61,0.00,,,0.00,Wunderground v.1.15,2013-03-02 08:37:00,
2013-03-02 03:43:00,54.7,41.5,30.04,NW,322,2.0,3.0,61,0.00,,,0.00,Wunderground v.1.15,2013-03-02 08:43:00,
2013-03-02 03:49:00,54.6,41.4,30.04,WNW,298,2.0,4.0,61,0.00,,,0.00,Wunderground v.1.15,2013-03-02 08:49:00,
2013-03-02 03:54:00,54.6,41.4,30.04,NNW,343,2.0,4.0,61,0.00,,,0.00,Wunderground v.1.15,2013-03-02 08:54:00,
2013-03-02 04:00:00,54.5,40.9,30.04,NNE,18,1.0,7.0,60,0.00,,,0.00,Wunderground v.1.15,2013-03-02 09:00:00,
2013-03-02 04:06:00,54.5,40.9,30.04,North,355,1.0,7.0,60,0.00,,,0.00,Wunderground v.1.15,2013-03-02 09:06:00,
2013-03-02 04:12:00,54.4,40.8,30.04,NW,309,1.0,1.0,60,0.00,,,0.00,Wunderground v.1.15,2013-03-02 09:12:00,
2013-03-02 04:17:00,54.3,41.6,30.04,NE,45,0.0,1.0,62,0.00,,,0.00,Wunderground v.1.15,2013-03-02 09:17:00,
2013-03-02 04:23:00,54.0,42.1,30.04,NE,44,0.0,0.0,64,0.00,,,0.00,Wunderground v.1.15,2013-03-02 09:23:00,
2013-03-02 04:29:00,53.7,41.8,30.04,NE,45,0.0,0.0,64,0.00,,,0.00,Wunderground v.1.15,2013-03-02 09:29:00,
2013-03-02 04:34:00,53.4,41.5,30.04,NE,51,0.0,0.0,64,0.00,,,0.00,Wunderground v.1.15,2013-03-02 09:34:00,
2013-03-02 04:40:00,53.1,41.6,30.03,NE,53,0.0,0.0,65,0.00,,,0.00,Wunderground v.1.15,2013-03-02 09:40:00,
2013-03-02 04:46:00,52.8,41.4,30.03,ENE,58,0.0,0.0,65,0.00,,,0.00,Wunderground v.1.15,2013-03-02 09:46:00,
2013-03-02 04:51:00,52.6,41.2,30.03,ENE,58,0.0,0.0,65,0.00,,,0.00,Wunderground v.1.15,2013-03-02 09:51:00,
2013-03-02 04:57:00,52.4,41.4,30.03,ENE,57,0.0,0.0,66,0.00,,,0.00,Wunderground v.1.15,2013-03-02 09:57:00,
2013-03-02 05:03:00,52.3,41.7,30.03,ENE,57,0.0,9.0,67,0.00,,,0.00,Wunderground v.1.15,2013-03-02 10:03:00,
2013-03-02 05:09:00,52.1,41.9,30.03,ENE,58,0.0,0.0,68,0.00,,,0.00,Wunderground v.1.15,2013-03-02 10:09:00,
2013-03-02 05:16:00,51.9,41.7,30.02,ENE,58,0.0,0.0,68,0.00,,,0.00,Wunderground v.1.15,2013-03-02 10:16:00,
2013-03-02 05:21:00,51.8,41.6,30.02,ENE,58,0.0,0.0,68,0.00,,,0.00,Wunderground v.1.15,2013-03-02 10:21:00,
2013-03-02 05:27:00,51.6,41.8,30.02,ENE,58,0.0,0.0,69,0.00,,,0.00,Wunderground v.1.15,2013-03-02 10:27:00,
2013-03-02 05:33:00,51.4,42.3,30.01,ENE,58,0.0,0.0,71,0.00,,,0.00,Wunderground v.1.15,2013-03-02 10:33:00,
2013-03-02 05:38:00,51.3,42.6,30.01,ENE,57,0.0,0.0,72,0.00,,,0.00,Wunderground v.1.15,2013-03-02 10:38:00,
2013-03-02 05:43:00,51.1,42.4,30.02,ENE,58,0.0,0.0,72,0.00,,,0.00,Wunderground v.1.15,2013-03-02 10:43:00,
2013-03-02 05:49:00,50.9,42.2,30.02,ENE,57,0.0,0.0,72,0.00,,,0.00,Wunderground v.1.15,2013-03-02 10:49:00,
2013-03-02 05:54:00,50.8,42.1,30.02,ENE,58,0.0,0.0,72,0.00,,,0.00,Wunderground v.1.15,2013-03-02 10:54:00,
2013-03-02 05:59:00,50.6,42.3,30.02,ENE,57,0.0,0.0,73,0.00,,,0.00,Wunderground v.1.15,2013-03-02 10:59:00,
2013-03-02 06:05:00,50.5,42.5,30.02,ENE,58,0.0,0.0,74,0.00,,,0.00,Wunderground v.1.15,2013-03-02 11:05:00,
2013-03-02 06:11:00,50.3,42.7,30.02,ENE,58,0.0,0.0,75,0.00,,,0.00,Wunderground v.1.15,2013-03-02 11:11:00,
2013-03-02 06:16:00,50.2,42.2,30.03,ENE,58,0.0,0.0,74,0.00,,,0.00,Wunderground v.1.15,2013-03-02 11:16:00,
2013-03-02 06:22:00,49.9,42.3,30.02,ENE,58,0.0,0.0,75,0.00,,,0.00,Wunderground v.1.15,2013-03-02 11:22:00,
2013-03-02 06:27:00,49.7,42.1,30.03,ENE,58,0.0,0.0,75,0.00,,,0.00,Wunderground v.1.15,2013-03-02 11:27:00,
2013-03-02 06:33:00,49.6,42.0,30.03,ENE,58,0.0,0.0,75,0.00,,,0.00,Wunderground v.1.15,2013-03-02 11:33:00,
2013-03-02 06:39:00,49.5,41.9,30.03,ENE,58,0.0,0.0,75,0.00,,,0.00,Wunderground v.1.15,2013-03-02 11:39:00,
2013-03-02 06:44:00,49.3,41.7,30.03,ENE,57,0.0,0.0,75,0.00,,,0.00,Wunderground v.1.15,2013-03-02 11:44:00,
2013-03-02 06:50:00,49.2,41.6,30.03,ENE,58,0.0,0.0,75,0.00,,,0.00,Wunderground v.1.15,2013-03-02 11:50:00,
2013-03-02 06:55:00,49.0,41.1,30.03,ENE,58,0.0,0.0,74,0.00,,,0.00,Wunderground v.1.15,2013-03-02 11:55:00,
2013-03-02 07:01:00,48.9,41.3,30.03,ENE,58,0.0,0.0,75,0.00,,,0.00,Wunderground v.1.15,2013-03-02 12:01:00,
2013-03-02 07:07:00,48.7,41.1,30.04,ENE,57,0.0,0.0,75,0.00,,,0.00,Wunderground v.1.15,2013-03-02 12:07:00,
2013-03-02 07:13:00,48.6,41.0,30.04,ENE,58,0.0,0.0,75,0.00,,,0.00,Wunderground v.1.15,2013-03-02 12:13:00,
2013-03-02 07:18:00,48.4,40.5,30.03,ENE,58,0.0,0.0,74,0.00,,,0.00,Wunderground v.1.15,2013-03-02 12:18:00,
2013-03-02 07:24:00,48.3,40.7,30.04,ENE,57,0.0,0.0,75,0.00,,,0.00,Wunderground v.1.15,2013-03-02 12:24:00,
2013-03-02 07:29:00,48.3,40.7,30.04,ENE,58,0.0,0.0,75,0.00,,,0.00,Wunderground v.1.15,2013-03-02 12:29:00,
2013-03-02 07:35:00,48.5,41.3,30.05,ENE,57,0.0,0.0,76,0.00,,,0.00,Wunderground v.1.15,2013-03-02 12:35:00,
2013-03-02 07:40:00,48.7,40.8,30.06,ENE,57,0.0,0.0,74,0.00,,,0.00,Wunderground v.1.15,2013-03-02 12:40:00,
2013-03-02 07:45:00,49.1,40.5,30.06,ENE,58,0.0,0.0,72,0.00,,,0.00,Wunderground v.1.15,2013-03-02 12:45:00,
2013-03-02 07:51:00,49.5,40.8,30.06,ENE,57,0.0,0.0,72,0.00,,,0.00,Wunderground v.1.15,2013-03-02 12:51:00,
2013-03-02 07:57:00,49.9,41.2,30.07,ENE,58,0.0,0.0,72,0.00,,,0.00,Wunderground v.1.15,2013-03-02 12:57:00,
2013-03-02 08:02:00,50.2,41.2,30.07,NE,52,0.0,0.0,71,0.00,,,0.00,Wunderground v.1.15,2013-03-02 13:02:00,
2013-03-02 08:08:00,50.3,41.3,30.08,NE,52,0.0,0.0,71,0.00,,,0.00,Wunderground v.1.15,2013-03-02 13:08:00,
2013-03-02 08:13:00,50.3,42.0,30.08,NE,53,0.0,0.0,73,0.00,,,0.00,Wunderground v.1.15,2013-03-02 13:13:00,
2013-03-02 08:19:00,50.3,42.3,30.08,NE,53,0.0,0.0,74,0.00,,,0.01,Wunderground v.1.15,2013-03-02 13:19:00,
2013-03-02 08:25:00,50.2,42.9,30.07,NE,52,0.0,0.0,76,0.00,,,0.01,Wunderground v.1.15,2013-03-02 13:25:00,
2013-03-02 08:30:00,50.2,43.9,30.07,NE,53,0.0,0.0,79,0.00,,,0.01,Wunderground v.1.15,2013-03-02 13:30:00,
2013-03-02 08:36:00,49.9,44.0,30.07,NE,52,0.0,0.0,80,0.00,,,0.01,Wunderground v.1.15,2013-03-02 13:36:00,
2013-03-02 08:41:00,49.6,43.4,30.07,NE,53,0.0,0.0,79,0.00,,,0.01,Wunderground v.1.15,2013-03-02 13:41:00,
2013-03-02 08:47:00,49.4,43.8,30.07,NE,53,0.0,0.0,81,0.00,,,0.01,Wunderground v.1.15,2013-03-02 13:47:00,
2013-03-02 08:53:00,49.6,44.3,30.07,NE,52,0.0,0.0,82,0.00,,,0.01,Wunderground v.1.15,2013-03-02 13:53:00,
2013-03-02 08:58:00,49.8,44.8,30.07,NE,53,0.0,0.0,83,0.00,,,0.01,Wunderground v.1.15,2013-03-02 13:58:00,
2013-03-02 09:03:00,49.8,42.9,30.08,NE,52,0.0,4.0,77,0.00,,,0.01,Wunderground v.1.15,2013-03-02 14:03:00,
2013-03-02 09:09:00,50.0,42.7,30.08,NE,53,0.0,0.0,76,0.00,,,0.01,Wunderground v.1.15,2013-03-02 14:09:00,
2013-03-02 09:14:00,50.2,42.6,30.08,NE,49,0.0,0.0,75,0.00,,,0.01,Wunderground v.1.15,2013-03-02 14:14:00,
2013-03-02 09:19:00,50.9,42.9,30.08,NE,49,0.0,0.0,74,0.00,,,0.01,Wunderground v.1.15,2013-03-02 14:19:00,
2013-03-02 09:25:00,51.2,41.4,30.08,NE,50,0.0,0.0,69,0.00,,,0.01,Wunderground v.1.15,2013-03-02 14:25:00,
2013-03-02 09:31:00,51.7,42.6,30.07,NE,49,0.0,0.0,71,0.00,,,0.01,Wunderground v.1.15,2013-03-02 14:31:00,
2013-03-02 09:36:00,52.4,42.1,30.07,NE,48,0.0,0.0,68,0.00,,,0.01,Wunderground v.1.15,2013-03-02 14:36:00,
2013-03-02 09:42:00,52.8,41.7,30.07,NE,49,0.0,0.0,66,0.00,,,0.01,Wunderground v.1.15,2013-03-02 14:42:00,
2013-03-02 09:47:00,53.4,41.9,30.08,NNW,340,0.0,1.0,65,0.00,,,0.01,Wunderground v.1.15,2013-03-02 14:47:00,
2013-03-02 09:53:00,53.7,41.8,30.08,North,360,1.0,7.0,64,0.00,,,0.02,Wunderground v.1.15,2013-03-02 14:53:00,
2013-03-02 09:59:00,53.0,40.3,30.09,NNE,29,3.0,3.0,62,0.00,,,0.02,Wunderground v.1.15,2013-03-02 14:59:00,
2013-03-02 10:04:00,52.5,40.3,30.09,NNW,342,3.0,4.0,63,0.00,,,0.02,Wunderground v.1.15,2013-03-02 15:04:00,
2013-03-02 10:10:00,52.4,40.6,30.10,NNW,344,1.0,2.0,64,0.00,,,0.02,Wunderground v.1.15,2013-03-02 15:10:00,
2013-03-02 10:16:00,53.0,41.9,30.09,NNE,14,2.0,9.0,66,0.00,,,0.02,Wunderground v.1.15,2013-03-02 15:16:00,
2013-03-02 10:21:00,53.3,42.2,30.09,WNW,301,3.0,6.0,66,0.00,,,0.02,Wunderground v.1.15,2013-03-02 15:21:00,
2013-03-02 10:27:00,53.7,42.2,30.09,North,5,4.0,6.0,65,0.00,,,0.02,Wunderground v.1.15,2013-03-02 15:27:00,
2013-03-02 10:32:00,53.6,42.5,30.10,NNW,343,3.0,5.0,66,0.00,,,0.02,Wunderground v.1.15,2013-03-02 15:32:00,
2013-03-02 10:38:00,53.3,42.2,30.10,NW,305,3.0,3.0,66,0.00,,,0.02,Wunderground v.1.15,2013-03-02 15:38:00,
2013-03-02 10:44:00,53.0,42.3,30.11,North,10,3.0,4.0,67,0.00,,,0.02,Wunderground v.1.15,2013-03-02 15:44:00,
2013-03-02 10:49:00,52.6,42.7,30.11,NNW,331,1.0,2.0,69,0.00,,,0.02,Wunderground v.1.15,2013-03-02 15:49:00,
2013-03-02 10:55:00,52.4,42.9,30.11,NNW,343,1.0,4.0,70,0.00,,,0.02,Wunderground v.1.15,2013-03-02 15:55:00,
2013-03-02 11:00:00,52.3,43.2,30.11,NW,315,1.0,13.0,71,0.00,,,0.02,Wunderground v.1.15,2013-03-02 16:00:00,
2013-03-02 11:06:00,52.5,43.4,30.11,NW,326,2.0,13.0,71,0.00,,,0.02,Wunderground v.1.15,2013-03-02 16:06:00,
2013-03-02 11:12:00,52.7,43.6,30.11,NW,311,5.0,9.0,71,0.00,,,0.02,Wunderground v.1.15,2013-03-02 16:12:00,
2013-03-02 11:17:00,53.1,43.6,30.11,WNW,303,5.0,9.0,70,0.00,,,0.02,Wunderground v.1.15,2013-03-02 16:17:00,
2013-03-02 11:23:00,54.4,43.3,30.11,NNW,341,4.0,11.0,66,0.00,,,0.02,Wunderground v.1.15,2013-03-02 16:23:00,
2013-03-02 11:29:00,55.6,43.2,30.11,NW,321,5.0,13.0,63,0.00,,,0.02,Wunderground v.1.15,2013-03-02 16:29:00,
2013-03-02 11:34:00,56.7,42.5,30.11,NNW,331,4.0,13.0,59,0.00,,,0.02,Wunderground v.1.15,2013-03-02 16:34:00,
2013-03-02 11:40:00,56.8,41.7,30.11,West,260,5.0,9.0,57,0.00,,,0.02,Wunderground v.1.15,2013-03-02 16:40:00,
2013-03-02 11:45:00,56.2,41.2,30.10,WNW,286,7.0,9.0,57,0.00,,,0.02,Wunderground v.1.15,2013-03-02 16:45:00,
2013-03-02 11:51:00,56.4,40.9,30.10,NW,319,4.0,9.0,56,0.00,,,0.02,Wunderground v.1.15,2013-03-02 16:51:00,
2013-03-02 11:56:00,56.9,41.8,30.10,WNW,302,2.0,9.0,57,0.00,,,0.02,Wunderground v.1.15,2013-03-02 16:56:00,
2013-03-02 12:01:00,57.0,41.4,30.10,NNW,334,3.0,9.0,56,0.00,,,0.02,Wunderground v.1.15,2013-03-02 17:01:00,
2013-03-02 12:06:00,56.8,41.3,30.09,West,281,5.0,9.0,56,0.00,,,0.02,Wunderground v.1.15,2013-03-02 17:06:00,
2013-03-02 12:11:00,56.8,41.3,30.09,North,5,4.0,6.0,56,0.00,,,0.02,Wunderground v.1.15,2013-03-02 17:11:00,
2013-03-02 12:17:00,56.6,40.6,30.09,NNW,331,6.0,9.0,55,0.00,,,0.02,Wunderground v.1.15,2013-03-02 17:17:00,
2013-03-02 12:22:00,56.5,41.0,30.09,WNW,302,6.0,9.0,56,0.00,,,0.02,Wunderground v.1.15,2013-03-02 17:22:00,
2013-03-02 12:28:00,56.9,41.4,30.09,NNW,346,4.0,6.0,56,0.00,,,0.02,Wunderground v.1.15,2013-03-02 17:28:00,
2013-03-02 12:33:00,56.6,41.5,30.08,NW,306,6.0,21.0,57,0.00,,,0.02,Wunderground v.1.15,2013-03-02 17:33:00,
2013-03-02 12:38:00,56.3,42.1,30.08,WNW,298,7.0,15.0,59,0.00,,,0.02,Wunderground v.1.15,2013-03-02 17:38:00,
2013-03-02 12:44:00,56.8,41.7,30.08,NW,311,5.0,15.0,57,0.00,,,0.02,Wunderground v.1.15,2013-03-02 17:44:00,
2013-03-02 12:49:00,57.1,42.5,30.08,WNW,290,4.0,12.0,58,0.00,,,0.02,Wunderground v.1.15,2013-03-02 17:49:00,
2013-03-02 12:55:00,57.1,42.9,30.07,NW,311,4.0,12.0,59,0.00,,,0.02,Wunderground v.1.15,2013-03-02 17:55:00,
2013-03-02 13:00:00,57.3,42.2,30.07,NW,319,3.0,13.0,57,0.00,,,0.02,Wunderground v.1.15,2013-03-02 18:00:00,
2013-03-02 13:06:00,57.3,42.2,30.07,NW,304,6.0,13.0,57,0.00,,,0.02,Wunderground v.1.15,2013-03-02 18:06:00,
2013-03-02 13:11:00,57.2,42.1,30.07,NW,314,7.0,13.0,57,0.00,,,0.02,Wunderground v.1.15,2013-03-02 18:11:00,
2013-03-02 13:17:00,56.9,41.8,30.07,WNW,300,5.0,13.0,57,0.00,,,0.02,Wunderground v.1.15,2013-03-02 18:17:00,
2013-03-02 13:23:00,56.4,41.8,30.06,WNW,286,7.0,11.0,58,0.00,,,0.02,Wunderground v.1.15,2013-03-02 18:23:00,
2013-03-02 13:28:00,55.9,41.8,30.07,West,271,6.0,8.0,59,0.00,,,0.02,Wunderground v.1.15,2013-03-02 18:28:00,
2013-03-02 13:34:00,55.8,42.1,30.06,North,355,4.0,12.0,60,0.00,,,0.02,Wunderground v.1.15,2013-03-02 18:34:00,
2013-03-02 13:39:00,55.7,42.5,30.05,West,281,4.0,5.0,61,0.00,,,0.02,Wunderground v.1.15,2013-03-02 18:39:00,
2013-03-02 13:45:00,55.7,42.5,30.05,NNE,21,4.0,7.0,61,0.00,,,0.02,Wunderground v.1.15,2013-03-02 18:45:00,
2013-03-02 13:50:00,56.2,42.1,30.04,North,5,4.0,8.0,59,0.00,,,0.02,Wunderground v.1.15,2013-03-02 18:50:00,
2013-03-02 13:56:00,56.7,42.1,30.05,NW,319,6.0,14.0,58,0.00,,,0.02,Wunderground v.1.15,2013-03-02 18:56:00,
2013-03-02 14:01:00,56.7,42.5,30.04,WNW,294,7.0,17.0,59,0.00,,,0.02,Wunderground v.1.15,2013-03-02 19:01:00,
2013-03-02 14:06:00,57.3,41.7,30.04,WNW,294,6.0,17.0,56,0.00,,,0.02,Wunderground v.1.15,2013-03-02 19:06:00,
2013-03-02 14:12:00,57.8,42.2,30.04,NE,49,4.0,9.0,56,0.00,,,0.02,Wunderground v.1.15,2013-03-02 19:12:00,
2013-03-02 14:17:00,58.1,42.9,30.04,North,11,3.0,9.0,57,0.00,,,0.02,Wunderground v.1.15,2013-03-02 19:17:00,
2013-03-02 14:22:00,57.7,41.2,30.03,WNW,302,4.0,10.0,54,0.00,,,0.02,Wunderground v.1.15,2013-03-02 19:22:00,
2013-03-02 14:28:00,56.3,40.8,30.03,NW,304,7.0,9.0,56,0.00,,,0.02,Wunderground v.1.15,2013-03-02 19:28:00,
2013-03-02 14:33:00,56.0,41.0,30.03,NW,317,8.0,17.0,57,0.00,,,0.02,Wunderground v.1.15,2013-03-02 19:33:00,
2013-03-02 14:38:00,55.8,41.2,30.03,NW,310,7.0,7.0,58,0.00,,,0.02,Wunderground v.1.15,2013-03-02 19:38:00,
2013-03-02 14:44:00,56.1,42.0,30.02,NW,306,4.0,11.0,59,0.00,,,0.02,Wunderground v.1.15,2013-03-02 19:44:00,
2013-03-02 14:49:00,57.1,42.0,30.03,NW,317,4.0,11.0,57,0.00,,,0.02,Wunderground v.1.15,2013-03-02 19:49:00,
2013-03-02 14:54:00,57.2,41.2,30.03,NNW,330,6.0,11.0,55,0.00,,,0.02,Wunderground v.1.15,2013-03-02 19:54:00,
2013-03-02 15:00:00,57.7,41.6,30.03,NW,309,6.0,19.0,55,0.00,,,0.02,Wunderground v.1.15,2013-03-02 20:00:00,
2013-03-02 15:05:00,57.5,41.4,30.03,NW,304,5.0,19.0,55,0.00,,,0.02,Wunderground v.1.15,2013-03-02 20:05:00,
2013-03-02 15:10:00,57.3,41.3,30.03,NNW,344,6.0,11.0,55,0.00,,,0.02,Wunderground v.1.15,2013-03-02 20:10:00,
2013-03-02 15:16:00,57.2,41.2,30.03,West,279,5.0,11.0,55,0.00,,,0.02,Wunderground v.1.15,2013-03-02 20:16:00,
2013-03-02 15:21:00,56.8,40.3,30.03,NNW,344,4.0,11.0,54,0.00,,,0.02,Wunderground v.1.15,2013-03-02 20:21:00,
2013-03-02 15:27:00,57.2,41.2,30.03,West,281,4.0,11.0,55,0.00,,,0.02,Wunderground v.1.15,2013-03-02 20:27:00,
2013-03-02 15:32:00,57.1,40.6,30.02,WNW,298,5.0,14.0,54,0.00,,,0.02,Wunderground v.1.15,2013-03-02 20:32:00,
2013-03-02 15:38:00,57.1,41.1,30.02,NW,314,5.0,5.0,55,0.00,,,0.02,Wunderground v.1.15,2013-03-02 20:38:00,
2013-03-02 15:43:00,56.6,40.1,30.03,North,349,4.0,10.0,54,0.00,,,0.02,Wunderground v.1.15,2013-03-02 20:43:00,
2013-03-02 15:48:00,56.4,40.0,30.02,WNW,299,4.0,5.0,54,0.00,,,0.02,Wunderground v.1.15,2013-03-02 20:48:00,
2013-03-02 15:54:00,56.1,39.7,30.03,WNW,295,7.0,12.0,54,0.00,,,0.02,Wunderground v.1.15,2013-03-02 20:54:00,
2013-03-02 15:59:00,55.8,40.3,30.02,WNW,302,7.0,18.0,56,0.00,,,0.02,Wunderground v.1.15,2013-03-02 20:59:00,
2013-03-02 16:04:00,56.0,40.5,30.03,NW,309,4.0,18.0,56,0.00,,,0.02,Wunderground v.1.15,2013-03-02 21:04:00,
2013-03-02 16:10:00,55.9,40.4,30.02,WNW,297,3.0,6.0,56,0.00,,,0.02,Wunderground v.1.15,2013-03-02 21:10:00,
2013-03-02 16:15:00,55.9,40.9,30.02,NW,307,3.0,6.0,57,0.00,,,0.02,Wunderground v.1.15,2013-03-02 21:15:00,
2013-03-02 16:21:00,56.0,41.0,30.02,NW,310,4.0,5.0,57,0.00,,,0.02,Wunderground v.1.15,2013-03-02 21:21:00,
2013-03-02 16:26:00,56.2,40.2,30.02,NW,320,3.0,10.0,55,0.00,,,0.02,Wunderground v.1.15,2013-03-02 21:26:00,
2013-03-02 16:32:00,56.1,41.1,30.02,NW,305,4.0,6.0,57,0.00,,,0.02,Wunderground v.1.15,2013-03-02 21:32:00,
2013-03-02 16:37:00,56.0,41.4,30.02,North,5,3.0,7.0,58,0.00,,,0.02,Wunderground v.1.15,2013-03-02 21:37:00,
2013-03-02 16:43:00,55.8,41.2,30.02,NW,306,2.0,9.0,58,0.00,,,0.02,Wunderground v.1.15,2013-03-02 21:43:00,
2013-03-02 16:48:00,55.6,40.6,30.02,SW,222,2.0,9.0,57,0.00,,,0.02,Wunderground v.1.15,2013-03-02 21:48:00,
2013-03-02 16:53:00,55.4,40.9,30.02,NW,307,2.0,11.0,58,0.00,,,0.02,Wunderground v.1.15,2013-03-02 21:53:00,
2013-03-02 16:59:00,55.5,41.4,30.02,NW,321,2.0,11.0,59,0.00,,,0.02,Wunderground v.1.15,2013-03-02 21:59:00,
2013-03-02 17:04:00,55.6,41.0,30.02,NW,311,3.0,11.0,58,0.00,,,0.02,Wunderground v.1.15,2013-03-02 22:04:00,
2013-03-02 17:10:00,55.4,41.3,30.02,NW,314,4.0,4.0,59,0.00,,,0.02,Wunderground v.1.15,2013-03-02 22:10:00,
2013-03-02 17:15:00,55.2,41.5,30.02,WNW,303,3.0,5.0,60,0.00,,,0.02,Wunderground v.1.15,2013-03-02 22:15:00,
2013-03-02 17:21:00,54.9,41.3,30.03,NW,306,4.0,10.0,60,0.00,,,0.02,Wunderground v.1.15,2013-03-02 22:21:00,
2013-03-02 17:27:00,54.8,41.2,30.03,WNW,298,2.0,10.0,60,0.00,,,0.02,Wunderground v.1.15,2013-03-02 22:27:00,
2013-03-02 17:32:00,54.7,41.1,30.03,WNW,298,2.0,3.0,60,0.00,,,0.02,Wunderground v.1.15,2013-03-02 22:32:00,
2013-03-02 17:38:00,54.6,41.0,30.03,NW,318,3.0,7.0,60,0.00,,,0.02,Wunderground v.1.15,2013-03-02 22:38:00,
2013-03-02 17:43:00,54.5,40.9,30.03,NW,309,4.0,9.0,60,0.00,,,0.02,Wunderground v.1.15,2013-03-02 22:43:00,
2013-03-02 17:48:00,54.5,41.3,30.03,NW,304,5.0,14.0,61,0.00,,,0.02,Wunderground v.1.15,2013-03-02 22:48:00,
2013-03-02 17:53:00,54.4,41.6,30.03,North,355,4.0,4.0,62,0.00,,,0.02,Wunderground v.1.15,2013-03-02 22:53:00,
2013-03-02 17:59:00,54.4,41.6,30.03,NNW,335,1.0,9.0,62,0.00,,,0.02,Wunderground v.1.15,2013-03-02 22:59:00,
2013-03-02 18:04:00,54.4,41.6,30.03,NW,305,1.0,13.0,62,0.00,,,0.02,Wunderground v.1.15,2013-03-02 23:04:00,
2013-03-02 18:09:00,54.3,42.0,30.03,NW,308,1.0,13.0,63,0.00,,,0.02,Wunderground v.1.15,2013-03-02 23:09:00,
2013-03-02 18:15:00,54.2,41.5,30.03,WNW,303,1.0,2.0,62,0.00,,,0.02,Wunderground v.1.15,2013-03-02 23:15:00,
2013-03-02 18:20:00,54.2,41.5,30.03,NNW,348,1.0,1.0,62,0.00,,,0.02,Wunderground v.1.15,2013-03-02 23:20:00,
2013-03-02 18:25:00,54.1,41.4,30.03,North,360,1.0,1.0,62,0.00,,,0.02,Wunderground v.1.15,2013-03-02 23:25:00,
2013-03-02 18:31:00,54.0,41.3,30.03,NNE,13,1.0,1.0,62,0.00,,,0.02,Wunderground v.1.15,2013-03-02 23:31:00,
2013-03-02 18:36:00,53.9,41.6,30.03,NW,324,1.0,5.0,63,0.00,,,0.02,Wunderground v.1.15,2013-03-02 23:36:00,
2013-03-02 18:41:00,53.9,41.2,30.03,NNW,336,1.0,2.0,62,0.00,,,0.02,Wunderground v.1.15,2013-03-02 23:41:00,
2013-03-02 18:47:00,53.8,41.1,30.03,WNW,286,1.0,10.0,62,0.00,,,0.02,Wunderground v.1.15,2013-03-02 23:47:00,
2013-03-02 18:52:00,53.8,41.5,30.03,NNW,333,1.0,2.0,63,0.00,,,0.02,Wunderground v.1.15,2013-03-02 23:52:00,
2013-03-02 18:57:00,53.8,41.5,30.03,WNW,300,1.0,3.0,63,0.00,,,0.02,Wunderground v.1.15,2013-03-02 23:57:00,
2013-03-02 19:03:00,53.7,41.0,30.03,North,5,2.0,9.0,62,0.00,,,0.02,Wunderground v.1.15,2013-03-03 00:03:00,
2013-03-02 19:08:00,53.6,40.9,30.03,North,350,1.0,9.0,62,0.00,,,0.02,Wunderground v.1.15,2013-03-03 00:08:00,
2013-03-02 19:14:00,53.6,40.9,30.03,NW,313,0.0,1.0,62,0.00,,,0.02,Wunderground v.1.15,2013-03-03 00:14:00,
2013-03-02 19:19:00,53.6,40.5,30.04,NW,309,1.0,5.0,61,0.00,,,0.02,Wunderground v.1.15,2013-03-03 00:19:00,
2013-03-02 19:24:00,53.6,40.5,30.04,North,349,1.0,4.0,61,0.00,,,0.02,Wunderground v.1.15,2013-03-03 00:24:00,
2013-03-02 19:30:00,53.5,40.4,30.04,NW,309,1.0,6.0,61,0.00,,,0.02,Wunderground v.1.15,2013-03-03 00:30:00,
2013-03-02 19:36:00,53.5,40.4,30.04,NW,313,1.0,6.0,61,0.00,,,0.02,Wunderground v.1.15,2013-03-03 00:36:00,
2013-03-02 19:41:00,53.5,40.4,30.04,WNW,287,1.0,3.0,61,0.00,,,0.02,Wunderground v.1.15,2013-03-03 00:41:00,
2013-03-02 19:47:00,53.5,40.4,30.04,North,350,0.0,3.0,61,0.00,,,0.02,Wunderground v.1.15,2013-03-03 00:47:00,
2013-03-02 19:52:00,53.3,40.6,30.04,NNW,337,0.0,0.0,62,0.00,,,0.02,Wunderground v.1.15,2013-03-03 00:52:00,
2013-03-02 19:58:00,53.3,40.2,30.04,NW,313,2.0,2.0,61,0.00,,,0.02,Wunderground v.1.15,2013-03-03 00:58:00,
2013-03-02 20:03:00,53.4,40.3,30.04,NNW,338,3.0,4.0,61,0.00,,,0.02,Wunderground v.1.15,2013-03-03 01:03:00,
2013-03-02 20:09:00,53.5,40.4,30.04,WNW,302,1.0,4.0,61,0.00,,,0.02,Wunderground v.1.15,2013-03-03 01:09:00,
2013-03-02 20:14:00,53.6,40.5,30.04,NW,304,2.0,6.0,61,0.00,,,0.02,Wunderground v.1.15,2013-03-03 01:14:00,
2013-03-02 20:20:00,53.6,40.5,30.04,NW,307,1.0,1.0,61,0.00,,,0.02,Wunderground v.1.15,2013-03-03 01:20:00,
2013-03-02 20:25:00,53.6,40.5,30.04,WNW,300,1.0,3.0,61,0.00,,,0.02,Wunderground v.1.15,2013-03-03 01:25:00,
2013-03-02 20:31:00,53.7,40.1,30.04,WNW,302,1.0,1.0,60,0.00,,,0.02,Wunderground v.1.15,2013-03-03 01:31:00,
2013-03-02 20:36:00,53.8,39.4,30.05,NNW,327,2.0,9.0,58,0.00,,,0.02,Wunderground v.1.15,2013-03-03 01:36:00,
2013-03-02 20:41:00,53.8,38.9,30.04,NNE,22,2.0,2.0,57,0.00,,,0.02,Wunderground v.1.15,2013-03-03 01:41:00,
2013-03-02 20:47:00,53.7,38.8,30.04,NW,309,1.0,5.0,57,0.00,,,0.02,Wunderground v.1.15,2013-03-03 01:47:00,
2013-03-02 20:52:00,53.7,38.4,30.04,WNW,299,3.0,6.0,56,0.00,,,0.02,Wunderground v.1.15,2013-03-03 01:52:00,
2013-03-02 20:57:00,53.9,38.1,30.04,WNW,290,4.0,9.0,55,0.00,,,0.02,Wunderground v.1.15,2013-03-03 01:57:00,
2013-03-02 21:03:00,54.0,38.2,30.05,WNW,302,2.0,11.0,55,0.00,,,0.02,Wunderground v.1.15,2013-03-03 02:03:00,
2013-03-02 21:08:00,54.0,38.2,30.04,NW,311,3.0,11.0,55,0.00,,,0.02,Wunderground v.1.15,2013-03-03 02:08:00,
2013-03-02 21:13:00,54.0,38.2,30.04,NW,309,4.0,6.0,55,0.00,,,0.02,Wunderground v.1.15,2013-03-03 02:13:00,
2013-03-02 21:19:00,54.0,38.6,30.05,WNW,296,4.0,6.0,56,0.00,,,0.02,Wunderground v.1.15,2013-03-03 02:19:00,
2013-03-02 21:25:00,53.9,38.6,30.05,NNW,330,3.0,4.0,56,0.00,,,0.02,Wunderground v.1.15,2013-03-03 02:25:00,
2013-03-02 21:31:00,53.8,38.5,30.05,NW,310,2.0,5.0,56,0.00,,,0.02,Wunderground v.1.15,2013-03-03 02:31:00,
2013-03-02 21:36:00,53.7,38.4,30.04,NNW,331,2.0,5.0,56,0.00,,,0.02,Wunderground v.1.15,2013-03-03 02:36:00,
2013-03-02 21:42:00,53.6,38.7,30.04,NW,314,2.0,7.0,57,0.00,,,0.02,Wunderground v.1.15,2013-03-03 02:42:00,
2013-03-02 21:47:00,53.5,38.6,30.04,WNW,302,2.0,11.0,57,0.00,,,0.02,Wunderground v.1.15,2013-03-03 02:47:00,
2013-03-02 21:52:00,53.7,38.4,30.04,WNW,302,3.0,7.0,56,0.00,,,0.02,Wunderground v.1.15,2013-03-03 02:52:00,
2013-03-02 21:57:00,53.7,38.8,30.04,NW,322,3.0,7.0,57,0.00,,,0.02,Wunderground v.1.15,2013-03-03 02:57:00,
2013-03-02 22:03:00,53.7,38.8,30.04,WNW,302,2.0,11.0,57,0.00,,,0.02,Wunderground v.1.15,2013-03-03 03:03:00,
2013-03-02 22:08:00,53.6,39.2,30.04,WNW,288,2.0,11.0,58,0.00,,,0.02,Wunderground v.1.15,2013-03-03 03:08:00,
2013-03-02 22:14:00,53.6,39.2,30.04,NW,320,2.0,4.0,58,0.00,,,0.02,Wunderground v.1.15,2013-03-03 03:14:00,
2013-03-02 22:19:00,53.6,39.6,30.04,NNW,327,1.0,6.0,59,0.00,,,0.02,Wunderground v.1.15,2013-03-03 03:19:00,
2013-03-02 22:25:00,53.7,39.7,30.04,NNW,332,2.0,8.0,59,0.00,,,0.02,Wunderground v.1.15,2013-03-03 03:25:00,
2013-03-02 22:30:00,53.7,39.7,30.04,NW,320,3.0,4.0,59,0.00,,,0.02,Wunderground v.1.15,2013-03-03 03:30:00,
2013-03-02 22:35:00,53.8,39.8,30.04,NNW,337,3.0,4.0,59,0.00,,,0.02,Wunderground v.1.15,2013-03-03 03:35:00,
2013-03-02 22:41:00,53.8,39.8,30.05,North,360,2.0,7.0,59,0.00,,,0.02,Wunderground v.1.15,2013-03-03 03:41:00,
2013-03-02 22:46:00,53.8,39.8,30.05,NW,309,3.0,7.0,59,0.00,,,0.02,Wunderground v.1.15,2013-03-03 03:46:00,
2013-03-02 22:51:00,53.9,39.9,30.05,NW,317,3.0,3.0,59,0.00,,,0.02,Wunderground v.1.15,2013-03-03 03:51:00,
2013-03-02 22:57:00,53.9,39.5,30.05,North,355,2.0,4.0,58,0.00,,,0.02,Wunderground v.1.15,2013-03-03 03:57:00,
2013-03-02 23:02:00,53.9,39.5,30.04,NW,323,3.0,11.0,58,0.00,,,0.02,Wunderground v.1.15,2013-03-03 04:02:00,
2013-03-02 23:08:00,53.9,39.5,30.05,WNW,301,4.0,11.0,58,0.00,,,0.02,Wunderground v.1.15,2013-03-03 04:08:00,
2013-03-02 23:13:00,54.0,39.5,30.04,NW,306,3.0,3.0,58,0.00,,,0.02,Wunderground v.1.15,2013-03-03 04:13:00,
2013-03-02 23:19:00,53.9,39.5,30.04,NW,304,3.0,5.0,58,0.00,,,0.02,Wunderground v.1.15,2013-03-03 04:19:00,
2013-03-02 23:24:00,53.7,39.3,30.04,WNW,298,3.0,3.0,58,0.00,,,0.02,Wunderground v.1.15,2013-03-03 04:24:00,
2013-03-02 23:29:00,53.6,38.7,30.04,NW,304,4.0,12.0,57,0.00,,,0.02,Wunderground v.1.15,2013-03-03 04:29:00,
2013-03-02 23:35:00,53.6,38.7,30.04,WNW,296,4.0,4.0,57,0.00,,,0.02,Wunderground v.1.15,2013-03-03 04:35:00,
2013-03-02 23:40:00,53.6,39.2,30.04,WNW,292,3.0,3.0,58,0.00,,,0.02,Wunderground v.1.15,2013-03-03 04:40:00,
2013-03-02 23:45:00,53.5,39.5,30.03,North,9,2.0,3.0,59,0.00,,,0.02,Wunderground v.1.15,2013-03-03 04:45:00,
2013-03-02 23:51:00,53.3,39.8,30.03,WNW,287,2.0,6.0,60,0.00,,,0.02,Wunderground v.1.15,2013-03-03 04:51:00,
2013-03-02 23:56:00,53.2,40.1,30.03,WNW,291,3.0,7.0,61,0.00,,,0.02,Wunderground v.1.15,2013-03-03 04:56:00,